Torna al catalogo

SITRO-AIS-38

AttivoNavigazioneSSO
NORAD 61786·PAYLOAD·🇷🇺 Russia
Questo nome del satellite non è ancora stato confermato da fonti ufficiali.

Lanciato Nov 4, 2024 da Vostochny Cosmodrome

Loading…

Prossimi Passaggi (prossime 24 ore)

TLE

AggiornatoSource: Space-Track

Epoca: Sep 14, 2026, 14:10 UTC

1 61786U 24199BD  26257.59079225  .00031438  00000-0  48749-3 0  9998
2 61786  97.2757 132.9683 0006226 338.5014  21.5977 15.53931691148174

Traccia SITRO-AIS-38 in tempo reale con AllMySat

Download on the App Store